This is the latest recevied weather packets stored in our database for station/object KB1RMA-13. If no packets are shown the sender has not sent any weather packets the latest 10 day(s).
| Time | Temp. | Humidity | Pressure | Rain* | Wind** | Luminosity | Snow |
|---|---|---|---|---|---|---|---|
| 1777727883 | 6.67° C | 93% | 1013.1 hPa | 0 mm | - | 63 W/m² | - |
| 1777727580 | 6.67° C | 93% | 1013.1 hPa | 0 mm | - | 55 W/m² | - |
| 1777727277 | 6.67° C | 92% | 1013 hPa | 0 mm | - | 57 W/m² | - |
| 1777726975 | 6.67° C | 92% | 1013 hPa | 0 mm | - | 58 W/m² | - |
| 1777726671 | 7.22° C | 91% | 1013.1 hPa | 0 mm | - | 56 W/m² | - |
| 1777726368 | 7.22° C | 91% | 1013.1 hPa | 0 mm | - | 58 W/m² | - |
| 1777726065 | 6.67° C | 92% | 1013.1 hPa | 0 mm | - | 85 W/m² | - |
| 1777725761 | 7.22° C | 93% | 1013 hPa | 0 mm | - | 101 W/m² | - |
| 1777725460 | 7.22° C | 93% | 1012.9 hPa | 0 mm | - | 155 W/m² | - |
| 1777725157 | 7.22° C | 93% | 1012.8 hPa | 0 mm | - | 66 W/m² | - |
| 1777724854 | 7.22° C | 93% | 1013 hPa | 0 mm | - | 35 W/m² | - |
| 1777724550 | 7.22° C | 93% | 1013.1 hPa | 0 mm | - | 42 W/m² | - |
| 1777724249 | 7.22° C | 92% | 1013.2 hPa | 0 mm | - | 79 W/m² | - |
| 1777723946 | 7.22° C | 92% | 1013 hPa | 0 mm | - | 147 W/m² | - |
| 1777723642 | 7.22° C | 92% | 1013.3 hPa | 0 mm | - | 35 W/m² | - |
| 1777723339 | 7.78° C | 91% | 1013.3 hPa | 0 mm | - | 41 W/m² | - |
| 1777723037 | 7.78° C | 90% | 1013.2 hPa | 0 mm | - | 36 W/m² | - |
| 1777722733 | 7.78° C | 89% | 1012.8 hPa | 0 mm | - | 31 W/m² | - |
| 1777722429 | 7.78° C | 90% | 1012.7 hPa | 0 mm | - | 35 W/m² | - |
| 1777722127 | 7.78° C | 90% | 1012.5 hPa | 0 mm | - | 28 W/m² | - |
| 1777721824 | 7.78° C | 90% | 1012.2 hPa | 0 mm | - | 60 W/m² | - |
| 1777721522 | 7.78° C | 91% | 1012.1 hPa | 0 mm | - | 118 W/m² | - |
| 1777721219 | 7.78° C | 92% | 1012.2 hPa | 0 mm | - | 80 W/m² | - |
| 1777720917 | 7.78° C | 92% | 1011.9 hPa | 0 mm | - | 59 W/m² | - |
| 1777720614 | 7.78° C | 92% | 1012.1 hPa | 0 mm | - | 82 W/m² | - |
* Rain latest hour (hover to see other rain measurements)
** Current wind speed in m/s (hover to see current wind gust speed)